Location: Houston
(29.7630°N, 95.3630°W)
Time: 01:58:31
(UTC-05:00)

ISS - All Passes

Search period start: 24 June 2017 00:00
Search period end: 04 July 2017 00:00
Orbit: 401 x 408 km, 51.6° (Epoch: 24 June)

Date Brightness Start Highest point End Pass type
(mag) Time Alt. Az. Time Alt. Az. Time Alt. Az.
24 Jun - 08:31:37 10° SSW 08:34:39 36° SE 08:37:41 10° ENE daylight
24 Jun - 10:09:12 10° WNW 10:11:13 15° NW 10:13:15 10° N daylight
24 Jun - 16:40:22 10° NNW 16:43:21 30° NE 16:46:18 10° ESE daylight
24 Jun - 18:17:36 10° W 18:19:36 15° SW 18:21:35 10° SSW daylight
25 Jun - 07:40:29 10° SSE 07:42:35 16° SE 07:44:43 10° E daylight
25 Jun - 09:15:59 10° WSW 09:18:52 28° NW 09:21:46 10° NNE daylight
25 Jun - 15:48:50 10° N 15:51:00 16° NE 15:53:11 10° ENE daylight
25 Jun - 17:24:32 10° WNW 17:27:33 34° SW 17:30:33 10° SSE daylight
26 Jun - 08:23:23 10° SW 08:26:37 64° NW 08:29:51 10° NE daylight
26 Jun - 16:32:07 10° NW 16:35:25 85° SW 16:38:42 10° SE daylight
27 Jun - 07:31:16 10° SSW 07:34:26 50° SE 07:37:37 10° NE daylight
27 Jun - 09:09:39 10° WNW 09:11:07 12° NW 09:12:35 10° N daylight
27 Jun - 15:40:03 10° NNW 15:43:10 40° NE 15:46:18 10° ESE daylight
27 Jun - 17:18:12 10° WSW 17:19:20 11° SW 17:20:28 10° SW daylight
28 Jun - 06:39:46 10° S 06:42:19 21° SE 06:44:53 10° ENE daylight
28 Jun - 08:16:04 10° W 08:18:42 22° NW 08:21:21 10° NNE daylight
28 Jun - 14:48:19 10° NNW 14:50:50 20° NE 14:53:21 10° E daylight
28 Jun - 16:24:30 10° WNW 16:27:16 25° SW 16:30:02 10° S daylight
29 Jun - 07:23:13 10° WSW 07:26:22 46° NW 07:29:32 10° NNE daylight
29 Jun - 13:57:17 10° NNE 13:58:23 11° NE 13:59:28 10° NE daylight
29 Jun - 15:31:53 10° NW 15:35:08 61° SW 15:38:22 10° SSE daylight
30 Jun - 06:30:54 10° SW 06:34:07 71° SE 06:37:23 10° NE daylight
30 Jun - 08:10:40 10° NW 08:10:55 10° NNW 08:11:11 10° NNW daylight
30 Jun - 14:39:39 10° NW 14:42:53 54° NE 14:46:07 10° ESE daylight
01 Jul - 05:39:06 10° S 05:41:57 28° SE 05:44:49 10° ENE visible
01 Jul - 07:16:06 10° W 07:18:26 18° NW 07:20:45 10° N daylight
01 Jul - 13:47:45 10° NNW 13:50:32 25° NE 13:53:20 10° E daylight
01 Jul - 15:24:27 10° W 15:26:52 19° SW 15:29:17 10° S daylight
02 Jul - 04:48:17 10° SSE 04:49:50 13° SE 04:51:23 10° E visible
02 Jul - 06:23:00 10° WSW 06:26:01 35° NW 06:29:03 10° NNE daylight
02 Jul - 12:56:19 10° N 12:58:05 14° NE 12:59:52 10° ENE daylight
02 Jul - 14:31:35 10° WNW 14:34:43 43° SW 14:37:51 10° SSE daylight
03 Jul - 05:30:28 10° SW 05:33:42 83° NW 05:36:58 10° NE visible
03 Jul - 13:39:11 10° NW 13:42:28 74° NE 13:45:45 10° SE daylight
